1500523200.91,48077,18.94,74260.3,6.53,-18.89,-19.65,0,*72
1500523202.16,48078,18.94,74262.0,6.53,-18.89,-19.71,0,*78
1500523203.4,48079,18.94,74260.8,6.53,-18.89,-19.71,0,*79
1500523204.68,48080,18.94,74258.8,6.53,-18.89,-19.57,0,*7B
1500523205.94,48081,18.94,74262.8,6.57,-18.83,-19.61,0,*71
1500523207.18,48082,18.94,74258.5,6.53,-18.89,-19.71,0,*7D
1500523208.45,48083,18.94,74264.8,6.53,-18.89,-19.65,0,*79
1500523209.72,48084,18.94,74260.8,6.53,-18.89,-19.65,0,*7E
1500523211.0,48085,18.94,74262.5,6.57,-18.89,-19.65,0,*7B
1500523212.27,48086,18.94,74260.0,6.57,-18.89,-19.81,0,*72
1500523213.5,48087,18.94,74262.5,6.57,-19.03,-19.91,0,*71
1500523214.75,48088,18.94,74262.5,6.53,-19.07,-19.85,0,*7B
1500523216.02,48089,18.94,74260.3,6.57,-18.89,-19.65,0,*77
1500523217.3,48090,18.94,74260.0,6.53,-18.93,-19.81,0,*7A
1500523218.56,48091,18.94,74262.0,6.57,-18.99,-19.65,0,*7F
1500523219.8,48092,18.94,74260.0,6.53,-18.89,-19.71,0,*7C
1500523221.05,48093,18.94,74264.0,6.53,-18.93,-19.71,0,*76
1500523222.3,48094,18.94,74260.3,6.53,-18.93,-19.71,0,*71
1500523223.58,48095,18.94,74260.8,6.53,-18.93,-19.65,0,*75
1500523224.83,48096,18.94,74260.8,6.53,-18.93,-19.71,0,*73
1500523226.09,48097,18.94,74260.3,6.53,-18.93,-19.71,0,*72
1500523227.36,48098,18.94,74260.3,6.57,-18.89,-19.65,0,*77
1500523228.61,48099,18.94,74260.5,6.53,-19.03,-19.81,0,*7B
1500523229.88,48100,18.94,74260.0,6.57,-18.89,-19.61,0,*73
1500523231.16,48101,18.94,74262.3,6.53,-18.93,-19.65,0,*79
1500523232.44,48102,18.94,74260.3,6.57,-18.89,-19.65,0,*75
1500523233.67,48103,18.94,74260.8,6.57,-18.99,-19.75,0,*74
1500523234.94,48104,18.94,74258.3,6.53,-18.93,-19.81,0,*76
1500523236.19,48105,18.94,74260.0,6.53,-19.03,-19.81,0,*7F
1500523237.44,48106,18.94,74260.0,6.53,-19.07,-19.81,0,*78
1500523238.71,48107,18.94,74260.3,6.57,-18.89,-19.65,0,*70
1500523239.97,48108,18.94,74260.3,6.53,-18.93,-19.71,0,*75
1500523241.2,48109,18.94,74258.3,6.57,-18.99,-19.75,0,*7E
1500523242.45,48110,18.94,74262.3,6.57,-18.99,-19.81,0,*7D
1500523243.7,48111,18.94,74258.0,6.53,-19.07,-19.81,0,*7E
1500523244.95,48112,18.94,74262.3,6.57,-18.99,-19.65,0,*75
1500523246.23,48113,18.94,74256.5,6.57,-18.89,-19.65,0,*75
1500523247.5,48114,18.94,74260.5,6.57,-18.89,-19.65,0,*72
1500523248.75,48115,18.94,74264.0,6.53,-19.03,-19.81,0,*7E
1500523250.0,48116,18.94,74258.8,6.53,-19.07,-19.85,0,*7D
1500523251.25,48117,18.94,74262.5,6.57,-18.99,-19.65,0,*70
1500523252.53,48118,18.94,74262.3,6.53,-18.93,-19.65,0,*71
1500523253.81,48119,18.94,74260.8,6.53,-18.93,-19.81,0,*7A
1500523255.06,48120,18.94,74260.5,6.53,-19.03,-19.85,0,*7C
1500523256.29,48121,18.94,74260.3,6.57,-18.99,-19.75,0,*74
1500523257.51,48122,18.94,74258.3,6.53,-19.03,-19.71,0,*75
1500523258.74,48123,18.94,74260.3,6.57,-18.99,-19.75,0,*76
1500523259.99,48124,18.94,74258.3,6.53,-19.03,-19.85,0,*78
1500523261.22,48125,18.94,74256.5,6.57,-18.99,-19.75,0,*70
1500523262.46,48126,18.94,74258.8,6.53,-19.03,-19.81,0,*7E
1500523263.71,48127,18.94,74260.0,6.53,-19.03,-19.81,0,*7F
1500523264.94,48128,18.94,74256.8,6.57,-18.99,-19.75,0,*7D
1500523266.17,48129,18.94,74256.5,6.57,-18.99,-19.75,0,*7C
1500523267.42,48130,18.94,74258.3,6.53,-18.93,-19.71,0,*7E
1500523268.64,48131,18.94,74258.3,6.53,-19.03,-19.71,0,*77
1500523269.89,48132,18.94,74258.5,6.53,-18.93,-19.71,0,*7C
1500523271.17,48133,18.94,74258.5,6.57,-18.89,-19.65,0,*77
1500523272.42,48134,18.94,74258.0,6.53,-18.93,-19.71,0,*7A
1500523273.67,48135,18.94,74256.3,6.53,-19.17,-19.85,0,*7D
1500523274.92,48136,18.94,74260.5,6.57,-19.03,-19.81,0,*7B
1500523276.18,48137,18.94,74260.0,6.57,-19.03,-19.81,0,*7A
1500523277.4,48138,18.94,74260.5,6.57,-19.03,-19.75,0,*7E
1500523278.63,48139,18.94,74262.3,6.57,-19.03,-19.75,0,*7F
1500523279.88,48140,18.94,74258.8,6.57,-18.99,-19.81,0,*78
1500523281.13,48141,18.94,74258.3,6.53,-19.07,-19.85,0,*7F
1500523282.38,48142,18.94,74256.0,6.53,-19.03,-19.81,0,*7C
1500523283.63,48143,18.94,74262.8,6.53,-19.07,-19.85,0,*7D
1500523284.87,48144,18.94,74262.5,6.53,-19.03,-19.81,0,*7A
1500523286.12,48145,18.94,74262.8,6.53,-19.03,-19.81,0,*7B
1500523287.37,48146,18.94,74260.5,6.53,-19.03,-19.81,0,*78
1500523288.62,48147,18.94,74262.3,6.57,-18.99,-19.65,0,*75
1500523289.89,48148,18.94,74260.3,6.53,-18.89,-19.65,0,*7F
1500523291.17,48149,18.94,74260.0,6.53,-18.93,-19.65,0,*75
1500523292.45,48150,18.94,74260.8,6.57,-18.89,-19.65,0,*72
1500523293.7,48151,18.94,74258.8,6.53,-18.93,-19.71,0,*79
1500523294.95,48152,18.94,74258.8,6.53,-18.93,-19.71,0,*7A
1500523296.23,48153,18.94,74262.5,6.57,-18.89,-19.61,0,*75
1500523297.48,48154,18.94,74260.5,6.53,-18.93,-19.71,0,*7C
1500523298.7,48155,18.94,74262.3,6.53,-19.03,-19.71,0,*75
1500523299.97,48156,18.94,74262.3,6.53,-18.89,-19.65,0,*70
1500523301.26,48157,18.94,74262.3,6.53,-18.93,-19.57,0,*7B
1500523302.53,48158,18.94,74258.5,6.53,-18.89,-19.65,0,*7E
1500523303.8,48159,18.94,74260.3,6.53,-18.89,-19.65,0,*7F
1500523305.08,48160,18.94,74262.3,6.53,-18.93,-19.65,0,*7E
1500523306.35,48161,18.94,74262.3,6.53,-18.89,-19.65,0,*74
1500523307.63,48162,18.94,74260.0,6.53,-18.89,-19.57,0,*76
1500523308.91,48163,18.94,74262.3,6.53,-18.93,-19.65,0,*7D
1500523310.19,48164,18.94,74258.8,6.53,-18.93,-19.65,0,*7A
1500523311.42,48165,18.94,74256.3,6.57,-18.83,-19.51,0,*79
1500523312.67,48166,18.94,74260.8,6.57,-18.83,-19.61,0,*79
1500523313.93,48167,18.94,74262.0,6.57,-18.83,-19.61,0,*78
1500523315.18,48168,18.94,74260.3,6.57,-18.83,-19.61,0,*77
1500523316.47,48169,18.94,74258.5,6.53,-18.93,-19.57,0,*76
1500523317.7,48170,18.94,74254.8,6.57,-18.83,-19.51,0,*7D
1500523318.95,48171,18.94,74256.8,6.57,-18.89,-19.51,0,*76
1500523320.19,48172,18.94,74256.5,6.53,-18.89,-19.51,0,*71
1500523321.42,48173,18.94,74258.3,6.57,-18.83,-19.47,0,*79
1500523322.7,48174,18.94,74258.5,6.57,-18.89,-19.57,0,*75
1500523323.94,48175,18.94,74260.5,6.53,-18.89,-19.51,0,*76
1500523325.17,48176,18.94,74256.3,6.57,-18.73,-19.47,0,*73
1500523326.42,48177,18.94,74262.0,6.57,-18.73,-19.41,0,*74
1500523327.63,48178,18.94,74256.8,6.59,-18.69,-19.47,0,*78
1500523328.86,48179,18.94,74262.3,6.53,-18.79,-19.47,0,*72
1500523330.09,48180,18.94,74256.8,6.59,-18.79,-19.41,0,*78
1500523331.32,48181,18.94,74256.3,6.57,-18.83,-19.47,0,*74
1500523332.52,48182,18.94,74258.8,6.59,-18.65,-19.37,0,*76
1500523333.75,48183,18.94,74260.5,6.57,-18.73,-19.51,0,*7E
1500523334.98,48184,18.94,74260.5,6.57,-18.83,-19.51,0,*76
1500523336.21,48185,18.94,74256.3,6.57,-18.83,-19.47,0,*70
1500523337.43,48186,18.94,74258.3,6.57,-18.83,-19.51,0,*74
1500523338.66,48187,18.94,74256.3,6.57,-18.73,-19.47,0,*7D
1500523339.89,48188,18.94,74258.8,6.57,-18.73,-19.47,0,*72
1500523341.11,48189,18.94,74262.3,6.53,-18.79,-19.51,0,*7A
1500523342.32,48190,18.94,74262.8,6.59,-18.69,-19.47,0,*7E
1500523343.55,48191,18.94,74260.5,6.59,-18.79,-19.41,0,*78
1500523344.78,48192,18.94,74260.3,6.59,-18.79,-19.41,0,*7B
1500523346.04,48193,18.94,74262.8,6.61,-18.69,-19.41,0,*70
1500523347.24,48194,18.94,74260.3,6.59,-18.79,-19.47,0,*7B
1500523348.5,48195,18.94,74258.3,6.57,-18.83,-19.61,0,*75
1500523349.75,48196,18.94,74262.5,6.57,-18.83,-19.61,0,*76
1500523350.98,48197,18.94,74262.3,6.57,-18.83,-19.51,0,*74
1500523352.21,48198,18.94,74262.8,6.59,-18.79,-19.41,0,*71
1500523353.42,48199,18.94,74260.8,6.59,-18.79,-19.47,0,*76
1500523354.68,48200,18.94,74258.5,6.61,-18.83,-19.57,0,*7A
1500523355.88,48201,18.94,74260.0,6.59,-18.79,-19.47,0,*74
1500523357.11,48202,18.94,74260.8,6.61,-18.79,-19.47,0,*7C
1500523358.34,48203,18.94,74258.0,6.59,-18.79,-19.41,0,*70
1500523359.55,48204,18.94,74262.5,6.59,-18.79,-19.47,0,*71
1500523360.75,48205,18.94,74260.3,6.59,-18.79,-19.47,0,*70
1500523361.96,48206,18.94,74258.5,6.59,-18.79,-19.47,0,*73
1500523363.16,48207,18.94,74258.0,6.59,-18.79,-19.47,0,*72
1500523364.37,48208,18.94,74258.0,6.59,-18.79,-19.47,0,*7D
1500523365.62,48209,18.94,74260.5,6.61,-18.79,-19.41,0,*71
1500523366.86,48210,18.94,74256.5,6.59,-18.83,-19.41,0,*77
1500523368.11,48211,18.94,74256.5,6.61,-18.69,-19.41,0,*79
1500523369.37,48212,18.94,74258.5,6.61,-18.69,-19.41,0,*7A
1500523370.6,48213,18.94,74260.8,6.59,-18.79,-19.41,0,*71
1500523371.81,48214,18.94,74256.8,6.59,-18.79,-19.47,0,*70
1500523373.06,48215,18.94,74258.8,6.61,-18.79,-19.41,0,*7C
1500523374.29,48216,18.94,74256.5,6.61,-18.79,-19.37,0,*7E
1500523375.5,48217,18.94,74260.3,6.59,-18.69,-19.37,0,*75
1500523376.73,48218,18.94,74260.3,6.59,-18.79,-19.41,0,*7A
1500523377.94,48219,18.94,74256.3,6.59,-18.79,-19.47,0,*7D
1500523379.14,48220,18.94,74258.3,6.59,-18.79,-19.47,0,*77
1500523380.37,48221,18.94,74258.8,6.59,-18.79,-19.41,0,*70
1500523381.6,48222,18.94,74258.8,6.61,-18.69,-19.47,0,*7F
1500523382.86,48223,19.0,74260.8,6.61,-18.69,-19.41,0,*78
1500523384.09,48224,18.94,74258.5,6.59,-18.79,-19.41,0,*75
1500523385.34,48225,18.94,74256.0,6.61,-18.79,-19.41,0,*7F
1500523386.58,48226,18.94,74256.8,6.59,-18.69,-19.41,0,*76
1500523387.83,48227,18.94,74258.5,6.61,-18.79,-19.41,0,*7D
1500523389.04,48228,19.0,74262.8,6.59,-18.69,-19.47,0,*7E
1500523390.24,48229,18.94,74260.8,6.63,-18.65,-19.37,0,*7D
1500523391.5,48230,18.94,74254.8,6.61,-18.69,-19.41,0,*7A
1500523392.76,48231,18.94,74258.5,6.61,-18.69,-19.57,0,*7C
1500523394.02,48232,18.94,74258.5,6.61,-18.83,-19.61,0,*7E
1500523395.3,48233,18.94,74256.3,6.61,-18.93,-19.57,0,*7B
1500523396.56,48234,18.94,74258.3,6.61,-18.83,-19.57,0,*7D
1500523397.79,48235,18.94,74258.3,6.61,-18.83,-19.47,0,*7D
1500523399.05,48236,18.94,74258.5,6.61,-18.79,-19.57,0,*7A
1500523400.31,48237,18.94,74260.0,6.61,-18.79,-19.61,0,*7E
1500523401.54,48238,18.94,74258.8,6.59,-18.83,-19.57,0,*7A
1500523402.81,48239,18.94,74258.5,6.61,-18.79,-19.57,0,*75
1500523404.04,48240,19.0,74260.0,6.59,-18.83,-19.57,0,*75
1500523405.24,48241,18.94,74256.8,6.63,-18.73,-19.51,0,*74
1500523406.5,48242,18.94,74256.3,6.59,-18.93,-19.61,0,*73
1500523407.76,48243,18.94,74258.3,6.61,-18.79,-19.57,0,*78
1500523409.0,48244,18.94,74258.3,6.59,-18.79,-19.61,0,*71
1500523410.25,48245,18.94,74254.3,6.61,-18.83,-19.61,0,*7E
1500523411.51,48246,18.94,74254.0,6.61,-18.83,-19.61,0,*7D
1500523412.77,48247,18.94,74258.0,6.59,-18.93,-19.61,0,*76
1500523414.0,48248,18.94,74256.5,6.59,-18.79,-19.57,0,*78
1500523415.26,48249,18.94,74256.5,6.61,-18.79,-19.57,0,*72
1500523416.49,48250,18.94,74258.3,6.61,-18.83,-19.47,0,*7E
1500523417.7,48251,18.94,74258.0,6.59,-18.79,-19.47,0,*71
1500523418.92,48252,18.94,74254.8,6.61,-18.79,-19.47,0,*79
1500523420.15,48253,18.94,74256.5,6.61,-18.79,-19.47,0,*78
1500523421.38,48254,18.94,74254.8,6.59,-18.83,-19.61,0,*75
1500523422.62,48255,18.94,74252.5,6.59,-18.99,-19.61,0,*7F
1500523423.88,48256,18.94,74258.0,6.59,-18.93,-19.61,0,*76
1500523425.11,48257,19.0,74256.3,6.59,-18.93,-19.71,0,*76
1500523426.35,48258,19.0,74262.3,6.59,-18.79,-19.57,0,*79
1500523427.61,48259,18.94,74256.0,6.61,-18.79,-19.57,0,*73
1500523428.84,48260,18.94,74256.5,6.59,-18.83,-19.61,0,*72
1500523430.07,48261,18.94,74252.8,6.61,-18.79,-19.47,0,*79
1500523431.32,48262,18.94,74256.5,6.61,-18.83,-19.41,0,*79
1500523432.55,48263,18.94,74254.8,6.59,-18.79,-19.41,0,*76
1500523433.81,48264,18.94,74258.3,6.61,-18.69,-19.41,0,*7B
1500523435.05,48265,18.94,74254.8,6.59,-18.83,-19.57,0,*72
1500523436.31,48266,18.94,74258.8,6.59,-18.93,-19.61,0,*75
1500523437.56,48267,18.94,74258.3,6.61,-18.83,-19.61,0,*7E
1500523438.82,48268,18.94,74254.8,6.61,-18.79,-19.57,0,*71
1500523440.08,48269,18.94,74258.3,6.61,-18.79,-19.61,0,*75
1500523441.31,48270,18.94,74258.8,6.59,-18.79,-19.61,0,*76
1500523442.54,48271,18.94,74256.8,6.59,-18.79,-19.61,0,*77
1500523443.78,48272,18.94,74258.3,6.59,-18.83,-19.61,0,*71
1500523444.98,48273,19.0,74262.8,6.59,-18.83,-19.71,0,*71
1500523446.21,48274,18.94,74256.5,6.59,-18.83,-19.61,0,*77
1500523447.45,48275,19.0,74258.8,6.59,-18.83,-19.61,0,*76
1500523448.68,48276,19.0,74262.3,6.59,-18.83,-19.57,0,*70
1500523449.89,48277,19.0,74260.0,6.59,-18.83,-19.47,0,*70
1500523451.15,48278,19.0,74258.5,6.61,-18.79,-19.57,0,*70
1500523452.4,48279,18.94,74256.8,6.61,-18.79,-19.61,0,*74
1500523453.66,48280,18.94,74254.8,6.61,-18.83,-19.61,0,*77
1500523454.86,48281,18.94,74254.3,6.59,-18.83,-19.71,0,*7C
1500523456.12,48282,18.94,74258.8,6.59,-18.93,-19.61,0,*7F
1500523457.36,48283,18.94,74256.5,6.59,-18.79,-19.57,0,*7F
1500523458.62,48284,19.0,74258.0,6.61,-18.79,-19.57,0,*73
1500523459.86,48285,18.94,74256.0,6.59,-18.79,-19.61,0,*7C
1500523461.08,48286,18.94,74256.3,6.61,-18.79,-19.47,0,*70
1500523462.29,48287,18.94,74258.0,6.59,-18.79,-19.47,0,*7A
1500523463.49,48288,19.0,74258.3,6.59,-18.79,-19.47,0,*75
1500523464.7,48289,18.94,74256.5,6.59,-18.69,-19.47,0,*75
1500523465.93,48290,19.0,74260.5,6.61,-18.69,-19.47,0,*76
1500523467.16,48291,18.94,74256.0,6.61,-18.79,-19.47,0,*76
1500523468.36,48292,19.0,74260.5,6.59,-18.79,-19.47,0,*7E
1500523469.59,48293,18.94,74256.5,6.59,-18.79,-19.41,0,*79
1500523470.82,48294,18.94,74252.8,6.61,-18.79,-19.47,0,*73
1500523472.05,48295,18.94,74258.5,6.61,-18.83,-19.71,0,*72
1500523473.29,48296,18.94,74256.0,6.59,-18.79,-19.57,0,*7B
1500523474.54,48297,19.0,74260.0,6.61,-18.83,-19.61,0,*71
1500523475.78,48298,18.94,74256.8,6.59,-18.79,-19.57,0,*75
1500523477.01,48299,19.0,74260.5,6.59,-18.83,-19.61,0,*74
1500523478.25,48300,18.94,74256.5,6.59,-18.79,-19.57,0,*75
1500523479.51,48301,19.0,74258.3,6.61,-18.79,-19.57,0,*7F
1500523480.77,48302,18.94,74256.8,6.61,-18.79,-19.57,0,*7C
1500523482.01,48303,18.94,74256.3,6.59,-18.79,-19.57,0,*76
1500523483.27,48304,19.0,74256.8,6.61,-18.83,-19.61,0,*7A
1500523484.52,48305,18.94,74254.0,6.61,-18.93,-19.71,0,*7B
1500523485.77,48306,18.94,74254.5,6.61,-18.93,-19.71,0,*78
1500523487.01,48307,18.94,74256.5,6.59,-18.79,-19.57,0,*72
1500523488.27,48308,19.0,74258.5,6.61,-18.79,-19.61,0,*73
1500523489.53,48309,18.94,74254.8,6.61,-18.83,-19.57,0,*72
1500523490.77,48310,18.94,74254.0,6.59,-18.79,-19.57,0,*74
1500523491.97,48311,18.94,74256.8,6.63,-18.65,-19.51,0,*77
1500523493.21,48312,19.0,74258.0,6.59,-18.79,-19.57,0,*76
1500523494.41,48313,19.0,74256.8,6.59,-18.83,-19.47,0,*73
1500523495.66,48314,19.0,74256.5,6.61,-18.65,-19.41,0,*71
1500523496.89,48315,19.0,74256.3,6.61,-18.69,-19.47,0,*7A
1500523498.1,48316,18.94,74254.3,6.59,-18.69,-19.47,0,*72
1500523499.35,48317,18.94,74254.8,6.61,-18.65,-19.41,0,*72
1500523500.58,48318,18.94,74254.8,6.61,-18.69,-19.37,0,*70
1500523501.84,48319,18.94,74254.5,6.61,-18.65,-19.27,0,*7C
1500523503.11,48320,19.0,74252.8,6.61,-18.55,-19.27,0,*75
1500523504.36,48321,19.0,74256.3,6.61,-18.49,-19.27,0,*79
1500523505.62,48322,19.0,74254.3,6.61,-18.49,-19.27,0,*7A
1500523506.87,48323,19.0,74254.8,6.61,-18.55,-19.37,0,*77
1500523508.12,48324,19.0,74254.0,6.61,-18.65,-19.27,0,*72
1500523509.34,48325,19.0,74256.8,6.63,-18.45,-19.23,0,*77
1500523510.62,48326,19.0,74254.5,6.61,-18.55,-19.27,0,*73
1500523511.87,48327,19.0,74256.3,6.65,-18.45,-19.23,0,*73
1500523513.09,48328,19.0,74252.8,6.63,-18.49,-19.31,0,*75
1500523514.34,48329,18.94,74254.8,6.65,-18.49,-19.23,0,*71
1500523515.58,48330,19.0,74252.0,6.65,-18.49,-19.31,0,*7A
1500523516.83,48331,18.94,74254.3,6.65,-18.49,-19.31,0,*7B
1500523518.06,48332,19.0,74254.8,6.63,-18.49,-19.23,0,*7D
1500523519.31,48333,19.0,74254.8,6.65,-18.45,-19.31,0,*75
1500523520.51,48334,18.94,74252.5,6.67,-18.41,-19.17,0,*70
1500523521.76,48335,19.0,74258.5,6.65,-18.45,-19.31,0,*73
1500523523.01,48336,18.94,74254.0,6.65,-18.59,-19.17,0,*79
1500523524.24,48337,19.0,74254.8,6.67,-18.59,-19.37,0,*78
1500523525.47,48338,19.0,74256.8,6.65,-18.65,-19.37,0,*7A
1500523526.72,48339,19.0,74254.3,6.65,-18.49,-19.31,0,*73
1500523527.97,48340,18.94,74254.8,6.67,-18.59,-19.31,0,*7E
1500523529.22,48341,19.0,74256.5,6.67,-18.59,-19.31,0,*7F
1500523530.47,48342,19.0,74258.5,6.67,-18.59,-19.31,0,*7C
1500523531.72,48343,19.0,74254.5,6.67,-18.55,-19.31,0,*71
1500523533.0,48344,19.0,74254.8,6.65,-18.59,-19.31,0,*78
1500523534.25,48345,19.0,74254.8,6.67,-18.59,-19.31,0,*7B
1500523535.5,48346,19.0,74254.3,6.69,-18.49,-19.27,0,*70
1500523536.72,48347,18.94,74252.0,6.67,-18.59,-19.47,0,*78
1500523537.93,48348,19.0,74258.0,6.67,-18.69,-19.47,0,*74
1500523539.16,48349,19.0,74252.5,6.67,-18.69,-19.31,0,*74
1500523540.39,48350,19.0,74256.3,6.67,-18.59,-19.37,0,*79
1500523541.62,48351,19.0,74258.5,6.67,-18.55,-19.37,0,*74
1500523542.83,48352,19.0,74256.5,6.67,-18.69,-19.37,0,*78
1500523544.1,48353,19.0,74256.8,6.69,-18.55,-19.31,0,*7E
1500523545.35,48354,19.0,74256.0,6.69,-18.55,-19.47,0,*78
1500523546.55,48355,18.94,74254.8,6.67,-18.69,-19.47,0,*78
1500523547.76,48356,19.0,74256.8,6.67,-18.73,-19.51,0,*77
1500523549.01,48357,19.0,74258.5,6.69,-18.69,-19.57,0,*75
1500523550.22,48358,19.0,74256.8,6.67,-18.69,-19.51,0,*72
1500523551.47,48359,19.0,74256.0,6.69,-18.65,-19.41,0,*70
1500523552.68,48360,19.0,74258.0,6.67,-18.69,-19.47,0,*7E
1500523553.88,48361,19.0,74260.5,6.67,-18.69,-19.51,0,*78
1500523555.09,48362,18.94,74254.8,6.67,-18.69,-19.51,0,*7B
1500523556.34,48363,19.0,74258.0,6.69,-18.65,-19.41,0,*79
1500523557.59,48364,19.0,74258.8,6.67,-18.59,-19.31,0,*78
1500523558.86,48365,19.0,74256.5,6.69,-18.55,-19.31,0,*7B
1500523560.09,48366,19.0,74256.3,6.67,-18.55,-19.37,0,*70
1500523561.37,48367,19.0,74256.8,6.69,-18.55,-19.41,0,*7E
1500523562.61,48368,19.0,74254.3,6.71,-18.55,-19.31,0,*7F
1500523563.87,48369,19.0,74258.8,6.67,-18.55,-19.31,0,*79
1500523565.12,48370,19.0,74256.5,6.69,-18.49,-19.31,0,*72
1500523566.37,48371,19.0,74260.0,6.69,-18.65,-19.41,0,*7A
1500523567.59,48372,19.0,74254.0,6.69,-18.65,-19.51,0,*78
1500523568.79,48373,19.0,74254.5,6.67,-18.69,-19.47,0,*7C
1500523570.02,48374,19.0,74258.5,6.71,-18.65,-19.31,0,*71
1500523571.27,48375,19.0,74256.8,6.69,-18.65,-19.31,0,*79
1500523572.54,48376,19.0,74254.5,6.69,-18.55,-19.31,0,*79
1500523573.82,48377,19.0,74254.8,6.69,-18.55,-19.41,0,*7F
1500523575.08,48378,19.0,74256.0,6.69,-18.69,-19.57,0,*78
1500523576.3,48379,19.0,74252.0,6.69,-18.69,-19.47,0,*78
1500523577.55,48380,19.0,74256.0,6.69,-18.65,-19.41,0,*74
1500523578.77,48381,19.0,74254.3,6.69,-18.65,-19.47,0,*73
1500523580.0,48382,19.0,74262.0,6.69,-18.65,-19.51,0,*77
1500523581.2,48383,19.0,74256.0,6.71,-18.65,-19.47,0,*78
1500523582.43,48384,19.0,74258.5,6.71,-18.69,-19.61,0,*77
1500523583.68,48385,19.0,74258.5,6.67,-18.89,-19.65,0,*7B
1500523584.91,48386,19.0,74256.0,6.67,-18.89,-19.75,0,*79
1500523586.13,48387,19.0,74256.3,6.69,-18.83,-19.71,0,*78
1500523587.39,48388,19.0,74256.3,6.69,-18.79,-19.57,0,*76
1500523588.64,48389,19.0,74256.0,6.69,-18.79,-19.61,0,*72
1500523589.86,48390,19.0,74258.0,6.69,-18.79,-19.71,0,*7B
1500523591.09,48391,19.0,74260.5,6.69,-18.83,-19.71,0,*7F
1500523592.31,48392,19.0,74254.5,6.67,-18.89,-19.75,0,*7C
1500523593.55,48393,19.0,74254.3,6.67,-18.83,-19.65,0,*76
1500523594.8,48394,19.0,74258.8,6.69,-18.69,-19.61,0,*7F
1500523596.03,48395,19.0,74256.8,6.67,-18.73,-19.65,0,*7F
1500523597.29,48396,19.0,74256.0,6.69,-18.69,-19.57,0,*78
1500523598.52,48397,19.0,74256.0,6.67,-18.83,-19.61,0,*76
1500523599.78,48398,19.0,74258.3,6.69,-18.79,-19.57,0,*77
1500523601.01,48399,19.0,74258.3,6.67,-18.83,-19.65,0,*7C
1500523602.27,48400,19.0,74256.8,6.69,-18.69,-19.57,0,*70
1500523603.51,48401,19.0,74256.5,6.67,-18.69,-19.57,0,*7F
1500523604.77,48402,19.0,74258.5,6.69,-18.65,-19.57,0,*7E
1500523606.02,48403,19.0,74258.8,6.69,-18.79,-19.57,0,*72
1500523607.23,48404,19.0,74260.8,6.67,-18.73,-19.51,0,*77
1500523608.46,48405,19.0,74262.3,6.67,-18.73,-19.65,0,*71
1500523609.69,48406,19.0,74258.8,6.67,-18.69,-19.61,0,*7D
1500523610.95,48407,19.0,74258.0,6.69,-18.69,-19.57,0,*77
1500523612.2,48408,19.0,74258.3,6.69,-18.69,-19.61,0,*7D
1500523613.43,48409,19.0,74260.3,6.67,-18.83,-19.65,0,*72
1500523614.67,48410,19.0,74258.8,6.67,-18.83,-19.65,0,*7A
1500523615.9,48411,19.0,74260.0,6.67,-18.73,-19.61,0,*70
1500523617.15,48412,19.0,74258.0,6.69,-18.83,-19.57,0,*77
1500523618.41,48413,19.0,74258.5,6.69,-18.79,-19.61,0,*76
1500523619.64,48414,19.0,74260.0,6.67,-18.83,-19.61,0,*7A
1500523620.87,48415,19.0,74254.3,6.67,-18.83,-19.65,0,*7F
1500523622.11,48416,19.0,74258.3,6.67,-18.83,-19.57,0,*7D
1500523623.34,48417,19.0,74260.0,6.71,-18.69,-19.57,0,*7F
1500523624.57,48418,19.0,74256.8,6.73,-18.45,-19.37,0,*7A
1500523625.82,48419,19.0,74256.0,6.71,-18.55,-19.31,0,*7E
1500523627.09,48420,19.0,74258.5,6.69,-18.55,-19.41,0,*7A
1500523628.31,48421,19.0,74258.0,6.69,-18.65,-19.47,0,*7E
1500523629.55,48422,19.0,74262.5,6.67,-18.73,-19.61,0,*70
1500523630.79,48423,19.0,74254.8,6.73,-18.59,-19.47,0,*78
1500523632.05,48424,19.0,74256.8,6.69,-18.69,-19.61,0,*73
1500523633.3,48425,19.0,74258.0,6.69,-18.69,-19.57,0,*77
1500523634.51,48426,19.0,74256.0,6.71,-18.65,-19.47,0,*70
1500523635.71,48427,19.0,74254.5,6.67,-18.73,-19.51,0,*76
1500523636.96,48428,19.0,74256.3,6.69,-18.49,-19.31,0,*78
1500523638.18,48429,19.0,74258.8,6.67,-18.41,-19.23,0,*7C
1500523639.43,48430,19.0,74254.0,6.69,-18.55,-19.47,0,*7D
1500523640.66,48431,19.0,74258.3,6.71,-18.49,-19.27,0,*7E
1500523641.88,48432,19.0,74256.8,6.69,-18.65,-19.47,0,*7C
1500523643.09,48433,19.0,74252.3,6.67,-18.69,-19.47,0,*7F
1500523644.33,48434,19.0,74250.5,6.71,-18.55,-19.31,0,*71
1500523645.56,48435,19.0,74252.5,6.71,-18.49,-19.31,0,*7D
1500523646.81,48436,19.0,74248.5,6.71,-18.55,-19.31,0,*73
1500523648.06,48437,19.0,74254.0,6.71,-18.55,-19.31,0,*72
1500523649.26,48438,19.0,74252.3,6.71,-18.65,-19.47,0,*7F
1500523650.48,48439,19.0,74250.5,6.71,-18.49,-19.41,0,*76
1500523651.71,48440,19.0,74252.3,6.71,-18.65,-19.31,0,*71
1500523652.96,48441,19.0,74248.5,6.71,-18.55,-19.31,0,*73
1500523654.18,48442,19.0,74250.5,6.71,-18.49,-19.31,0,*7D
1500523655.41,48443,19.0,74252.8,6.71,-18.49,-19.27,0,*7B
1500523656.64,48444,19.0,74248.5,6.71,-18.49,-19.27,0,*7C
1500523657.86,48445,19.0,74252.5,6.71,-18.65,-19.41,0,*73
1500523659.11,48446,19.0,74254.5,6.71,-18.55,-19.31,0,*74
1500523660.34,48447,19.0,74252.0,6.73,-18.49,-19.37,0,*7C
1500523661.56,48448,19.0,74248.8,6.75,-18.49,-19.27,0,*74
1500523662.81,48449,19.0,74248.3,6.73,-18.59,-19.37,0,*73
1500523664.06,48450,19.0,74252.3,6.73,-18.59,-19.37,0,*7B
1500523665.31,48451,19.0,74250.0,6.73,-18.59,-19.37,0,*7A
1500523666.56,48452,19.0,74252.8,6.73,-18.59,-19.37,0,*79
1500523667.81,48453,19.0,74256.0,6.73,-18.59,-19.37,0,*78
1500523669.03,48454,19.0,74254.3,6.71,-18.59,-19.37,0,*7D
1500523670.24,48455,19.0,74252.0,6.71,-18.69,-19.47,0,*78
1500523671.49,48456,19.0,74252.5,6.73,-18.73,-19.57,0,*73
1500523672.74,48457,19.0,74254.8,6.73,-18.65,-19.61,0,*70
1500523673.99,48458,19.0,74258.3,6.73,-18.59,-19.51,0,*73
1500523675.22,48459,19.0,74254.0,6.71,-18.69,-19.61,0,*70
1500523676.48,48460,19.0,74254.5,6.73,-18.65,-19.57,0,*71
1500523677.71,48461,19.0,74256.5,6.71,-18.79,-19.61,0,*7A
1500523678.94,48462,19.0,74258.0,6.71,-18.79,-19.57,0,*7C
1500523680.17,48463,19.0,74254.3,6.71,-18.65,-19.57,0,*70
1500523681.45,48464,19.0,74252.3,6.73,-18.59,-19.41,0,*7D
1500523682.67,48465,19.0,74254.5,6.73,-18.65,-19.51,0,*72
1500523683.92,48466,19.0,74254.0,6.73,-18.59,-19.51,0,*7E
1500523685.14,48467,19.0,74256.3,6.73,-18.49,-19.37,0,*7E
1500523686.42,48468,19.0,74252.3,6.73,-18.59,-19.41,0,*71
1500523687.7,48469,19.0,74254.5,6.73,-18.59,-19.57,0,*77
1500523688.93,48470,19.0,74254.5,6.71,-18.69,-19.61,0,*7B
1500523690.15,48471,19.0,74258.0,6.73,-18.65,-19.51,0,*77
1500523691.35,48472,19.0,74252.5,6.71,-18.83,-19.71,0,*7C
1500523692.58,48473,19.0,74252.5,6.73,-18.73,-19.71,0,*70
1500523693.83,48474,19.0,74254.3,6.73,-18.73,-19.65,0,*72
1500523695.03,48475,19.0,74252.0,6.71,-18.79,-19.71,0,*7E
1500523696.25,48476,19.0,74252.3,6.73,-18.79,-19.71,0,*7F
1500523697.5,48477,19.0,74256.0,6.73,-18.73,-19.65,0,*71
1500523698.75,48478,19.0,74258.0,6.73,-18.59,-19.51,0,*71
1500523700.01,48479,19.0,74254.5,6.73,-18.65,-19.57,0,*79
1500523701.25,48480,19.0,74258.0,6.73,-18.59,-19.51,0,*76
1500523702.51,48481,19.0,74254.0,6.73,-18.65,-19.57,0,*7E
1500523703.74,48482,19.0,74256.5,6.71,-18.65,-19.57,0,*7F
1500523704.99,48483,19.0,74252.0,6.73,-18.59,-19.51,0,*75
1500523706.21,48484,19.0,74252.3,6.73,-18.65,-19.51,0,*7D
1500523707.47,48485,19.0,74254.8,6.73,-18.65,-19.57,0,*7A
1500523708.75,48486,19.0,74254.5,6.73,-18.59,-19.57,0,*76